Flag for India Weather past 2 weeks in Thiruvananthapuram, Kerala, India

Now
81 °F

Partly cloudy.


Feels Like: 85 °F
Forecast: 80 / 87 °F
Wind: 6 mph from West

Location: Thiruvananthapuram

Current Time: Jul 2, 2015 at 5:02:58 AM

Latest Report: Jul 2, 2015 at 3:40 AM


Visibility: 2 mi

Pressure: 29.83 "Hg

Humidity: 79%

Dew point: 73 °F

Location of ThiruvananthapuramLocation

Historic Weather in Thiruvananthapuram — Graph

°F

Thiruvananthapuram temperature yesterday

Maximum temperature yesterday: 90 °F (at 12:10 PM)
Minimum temperature yesterday: 77 °F (at 2:40 AM)
Average temperature yesterday: 84 °F

Past Weeks' High & Low Weather Summary

 TemperatureHumidityPressure
High90 °F (Jun 20, 12:10 PM)100% (Jun 28, 3:10 AM)29.92 "Hg (Jun 28, 3:10 AM)
Low48 °F (Jun 29, 12:10 PM)63% (Jun 20, 12:10 PM)29.65 "Hg (Jun 17, 3:40 PM)
Average82 °F81%29.79 "Hg
* Reported Jun 17 2:40 AM — Jul 2 2:40 AM, Thiruvananthapuram, Weather by CustomWeather, © 2015

Note: Actual official high and low records may vary slightly from our data, if they occured in-between our weather recording intervals... More about our weather records

Advertising

Thiruvananthapuram weather history for previous 24 hours

 ConditionsComfort  
Time TempWeatherWind HumidityBarometerVisibility
2:40 AM
Thu, Jul 2
81 °FPartly cloudy.6 mph79%29.86 "Hg2 mi
2:10 AM81 °FPartly cloudy.5 mph79%29.86 "Hg2 mi
1:40 AM81 °FPartly cloudy.3 mph79%29.86 "Hg2 mi
1:10 AM81 °FPartly cloudy.5 mph79%29.86 "Hg2 mi
12:40 AM81 °FPassing clouds.3 mph84%29.89 "Hg2 mi
12:10 AM81 °FHaze.6 mph84%29.89 "Hg2 mi
11:40 PM
Wed, Jul 1
82 °FHaze.5 mph79%29.89 "Hg2 mi
11:10 PM82 °FHaze.5 mph79%29.89 "Hg2 mi
10:40 PM82 °FHaze.3 mph79%29.89 "Hg2 mi
10:10 PM82 °FHaze.5 mph79%29.89 "Hg2 mi
9:40 PM82 °FHaze.5 mph79%29.89 "Hg2 mi
9:10 PM82 °FHaze.6 mph79%29.89 "Hg2 mi
8:10 PM84 °FHaze.6 mph74%29.86 "Hg2 mi
7:40 PM84 °FHaze.6 mph74%29.86 "Hg2 mi
7:10 PM84 °FHaze.6 mph74%29.83 "Hg2 mi
5:40 PM86 °FPassing clouds.7 mph70%29.80 "Hg4 mi
5:10 PM88 °FPassing clouds.8 mph70%29.80 "Hg4 mi
4:40 PM90 °FPassing clouds.9 mph67%29.80 "Hg4 mi
4:10 PM90 °FPassing clouds.9 mph71%29.80 "Hg4 mi
3:40 PM90 °FPassing clouds.9 mph71%29.80 "Hg4 mi
3:10 PM90 °FPassing clouds.9 mph71%29.80 "Hg4 mi
2:40 PM90 °FPassing clouds.9 mph71%29.83 "Hg4 mi
2:10 PM90 °FPassing clouds.8 mph71%29.83 "Hg4 mi
1:40 PM90 °FPassing clouds.8 mph71%29.83 "Hg4 mi
1:10 PM90 °FPassing clouds.8 mph71%29.83 "Hg4 mi
12:40 PM90 °FPassing clouds.12 mph71%29.86 "Hg4 mi
12:10 PM90 °FPassing clouds.9 mph71%29.86 "Hg4 mi
11:40 AM88 °FHaze.9 mph75%29.86 "Hg3 mi
11:10 AM88 °FHaze.8 mph75%29.89 "Hg3 mi
10:40 AM88 °FHaze.7 mph75%29.89 "Hg3 mi
10:10 AM88 °FScattered clouds.9 mph75%29.89 "Hg3 mi
9:40 AM86 °FScattered clouds.9 mph79%29.89 "Hg3 mi
9:10 AM86 °FScattered clouds.8 mph79%29.89 "Hg3 mi
8:40 AM84 °FScattered clouds.7 mph79%29.89 "Hg3 mi
7:40 AM81 °FScattered clouds.5 mph84%29.86 "Hg2 mi
7:10 AM79 °FScattered clouds.No wind89%29.86 "Hg2 mi
6:40 AM77 °FScattered clouds.No wind94%29.83 "Hg2 mi
6:10 AM77 °FPassing clouds.No wind89%29.86 "Hg2 mi
Weather by CustomWeather, © 2015

See weather overviewHow to use our weather pages